Change the Weather History Date:

Monday, December 16, 2013

  Actual Average Record
Temperature  
Mean Temperature 48 °F 53 °F  
Max Temperature 62 °F 65 °F 81 °F (2012)
Min Temperature 34 °F 41 °F 28 °F (2004)
Degree Days  
Heating Degree Days 17 12  
Month to date heating degree days 76 177  
Since 1 July heating degree days 242 408  
Moisture  
Dew Point 34 °F    
Average Humidity 63    
Maximum Humidity 89    
Minimum Humidity 36    
Precipitation  
Precipitation 0.00 in 0.12 in 0.16 in (2007)
Month to date precipitation 2.73 1.83  
Year to date precipitation 44.07 49.26  
Sea Level Pressure  
Sea Level Pressure 30.27 in    
Wind  
Wind Speed 1 mph (North)    
Max Wind Speed 14 mph    
Max Gust Speed 16 mph    
Visibility 9 miles    
Events      
T = Trace of Precipitation, MM = Missing Value Source: NWS Daily Summary

Daily Weather History Graph

Daily Weather History Graph

Search for Another Location

Airport or City:

Trip Planner

Search our weather history database for the weather conditions in past years. The results will help you decide how hot, cold, wet, or windy it might be!

Date:

Astronomy

Dec. 16, 2013 Rise Set
Actual Time 7:24 AM EST 5:33 PM EST
Civil Twilight 6:57 AM EST 6:00 PM EST
Nautical Twilight 6:27 AM EST 6:30 PM EST
Astronomical Twilight 5:57 AM EST 7:00 PM EST
Moon 5:19 PM EST (12/16) 6:35 AM EST (12/16)
Length of Visible Light 11h 03m
Length of Day
10h 09m
Full, 100% of the Moon is Illuminated
Dec 16
Full
Dec 17
Full
Dec 25
Last Quarter
Jan 1
New
Jan 7
First Quarter

Hourly Weather History & Observations

Time (EST) Temp. Windchill Dew Point Humidity Pressure Visibility Wind Dir Wind Speed Gust Speed Precip Events Conditions
12:53 AM 39.0 °F - 33.1 °F 79% 30.24 in 10.0 mi Calm Calm - N/A   Clear
1:53 AM 37.9 °F - 33.1 °F 83% 30.24 in 9.0 mi Calm Calm - N/A   Clear
2:53 AM 37.0 °F - 33.1 °F 86% 30.23 in 7.0 mi Calm Calm - N/A   Clear
3:53 AM 36.0 °F - 32.0 °F 86% 30.24 in 8.0 mi Calm Calm - N/A   Clear
4:53 AM 37.0 °F - 32.0 °F 82% 30.23 in 10.0 mi Calm Calm - N/A   Clear
5:53 AM 35.1 °F - 32.0 °F 89% 30.25 in 9.0 mi Calm Calm - N/A   Clear
6:53 AM 35.1 °F - 30.9 °F 85% 30.27 in 8.0 mi Calm Calm - N/A   Clear
7:53 AM 36.0 °F - 32.0 °F 86% 30.27 in 6.0 mi Calm Calm - N/A   Clear
8:53 AM 41.0 °F 39.0 °F 34.0 °F 76% 30.29 in 10.0 mi North 3.5 mph - N/A   Clear
9:53 AM 45.0 °F 41.8 °F 33.1 °F 63% 30.30 in 10.0 mi North 5.8 mph - N/A   Clear
10:53 AM 48.9 °F - 34.0 °F 56% 30.31 in 10.0 mi North 3.5 mph - N/A   Clear
11:53 AM 54.0 °F - 34.0 °F 47% 30.30 in 10.0 mi Variable 3.5 mph - N/A   Clear
12:53 PM 57.0 °F - 33.1 °F 40% 30.27 in 10.0 mi North 6.9 mph - N/A   Clear
1:53 PM 60.1 °F - 34.0 °F 38% 30.25 in 10.0 mi Variable 5.8 mph - N/A   Clear
2:53 PM 61.0 °F - 33.1 °F 35% 30.25 in 10.0 mi NNE 5.8 mph - N/A   Clear
3:53 PM 62.1 °F - 35.1 °F 37% 30.25 in 10.0 mi Calm Calm - N/A   Clear
4:53 PM 57.0 °F - 37.0 °F 47% 30.25 in 10.0 mi Calm Calm - N/A   Clear
5:53 PM 51.1 °F - 37.9 °F 61% 30.27 in 10.0 mi Calm Calm - N/A   Clear
6:53 PM 46.0 °F - 37.9 °F 73% 30.28 in 10.0 mi Calm Calm - N/A   Clear
7:53 PM 44.1 °F - 37.9 °F 79% 30.28 in 10.0 mi Calm Calm - N/A   Clear
8:53 PM 43.0 °F - 37.0 °F 80% 30.29 in 10.0 mi Calm Calm - N/A   Clear
9:53 PM 42.1 °F - 37.0 °F 82% 30.29 in 10.0 mi Calm Calm - N/A   Clear
10:53 PM 39.9 °F - 36.0 °F 86% 30.30 in 9.0 mi Calm Calm - N/A   Clear
11:53 PM 39.0 °F - 35.1 °F 86% 30.30 in 8.0 mi Calm Calm - N/A   Clear